Simultaneous Nadir Overpasses (SNOs) Predictions

Prediction of SNOs between METOP-B and TERRA Satellite Orbit:

Table of predicted SNOs for the next 14.0 days since TLE Epoch: 5/25/2013
Index Date (METOP-B) Time (METOP-B) Lat,Lon (METOP-B) SZA (METOP-B ) Date (TERRA) Time (TERRA) Lat,Lon (TERRA) SZA (TERRA ) Distance(km) Time Diff (sec)
1 05/25/2013 10:41:25 -81.29,-113.44 116.76 05/25/2013 10:41:54 -81.30,-113.26 116.72 3.19 29
2 05/25/2013 11:32:05 81.30, 54.38 63.31 05/25/2013 11:31:20 81.31, 54.55 63.31 3.11 45
3 05/28/2013 06:15:48 -81.30, -46.88 117.22 05/28/2013 06:16:12 -81.29, -47.00 117.22 1.92 24
4 05/28/2013 07:06:28 81.30, 120.95 62.85 05/28/2013 07:05:38 81.30, 120.79 62.80 2.81 50
5 05/31/2013 01:50:11 -81.30, 19.62 117.64 05/31/2013 01:50:29 -81.29, 19.48 117.65 2.37 18
6 05/31/2013 02:40:52 81.30,-172.93 62.38 05/31/2013 02:39:55 81.30,-172.77 62.37 2.68 57
7 06/02/2013 21:24:34 -81.29, 85.67 118.06 06/02/2013 21:24:45 -81.29, 85.78 118.05 1.90 11
8 06/02/2013 22:15:14 81.30,-106.48 62.00 06/02/2013 22:14:11 81.29,-106.50 61.96 0.87 63
9 06/05/2013 16:58:56 -81.30, 152.45 118.35 06/05/2013 16:59:01 -81.29, 152.29 118.37 2.69 5




NCC Satellite Simultaneous Nadir Overpasses (SNOs) Prediction Service
